Location: Los Gatos B&B
(42.6926°N, 77.0646°W)
Time: 22:15:05
(UTC-04:00)

Amateur Radio Satellites - All Passes

Search period start: 23 March 2017 21:45
Search period end: 24 March 2017 21:45
Location: Los Gatos B&B, 42.6926°N, 77.0646°W

Satellite Date Start Highest point End Downlink Frequencies (MHz)
Time Altitude Azimuth
YUBILEINY 23 Mar 21:49:49 21:55:31 20° 282° (WNW) 22:01:14 435.215
Oscar 11 23 Mar 22:00:41 22:04:29 29° 264° (W) 22:08:17 .
ZACube-1 23 Mar 22:02:08 22:05:52 24° 266° (W) 22:09:35 437.345
PRISM 23 Mar 22:03:10 22:06:31 23° 95° (E) 22:09:51 437.425
LO-87 23 Mar 22:07:08 22:08:09 11° 64° (ENE) 22:09:11 145.935 - 145.965
ESTCUBE 1 23 Mar 22:16:29 22:17:20 10° 59° (ENE) 22:18:10 437.505/2401.250
ISS 23 Mar 22:17:46 22:20:52 40° 139° (SE) 22:23:58 437.550
Tancredo 1 23 Mar 22:32:12 22:35:20 63° 144° (SE) 22:38:30 437.200
AO-73 23 Mar 22:34:26 22:36:31 13° 270° (W) 22:38:37 145.935
AO-85 23 Mar 22:35:40 22:40:05 75° 303° (WNW) 22:44:14 145.980
DELFI C3 23 Mar 22:39:10 22:42:41 32° 263° (W) 22:46:14 145.870
SPROUT 23 Mar 23:14:56 23:16:11 11° 60° (ENE) 23:17:25 437.525
TIGRISAT 23 Mar 23:18:12 23:22:41 73° 103° (ESE) 23:27:00 435.000
UNISAT 6 23 Mar 23:27:22 23:31:52 83° 283° (WNW) 23:36:13 437.425
RS-15 23 Mar 23:28:40 23:40:48 69° 244° (WSW) 23:52:21 29.354- 29.394
BEESAT 3 23 Mar 23:37:04 23:40:49 47° 118° (ESE) 23:44:40 437.485
LO-87 23 Mar 23:37:37 23:41:08 52° 260° (W) 23:44:41 145.935 - 145.965
PRISM 23 Mar 23:38:09 23:41:48 30° 291° (WNW) 23:45:26 437.425
FO-29 23 Mar 23:38:50 23:45:02 65° 101° (E) 23:50:31 435.910
VELOX 1 23 Mar 23:39:57 23:43:29 24° 66° (ENE) 23:47:03 145.980
SO-50 23 Mar 23:44:41 23:48:23 24° 43° (NE) 23:52:04 436.795
BEESAT 2 23 Mar 23:46:12 23:49:23 23° 113° (ESE) 23:52:35 435.950
ESTCUBE 1 23 Mar 23:48:56 23:53:25 88° 264° (W) 23:57:55 437.505/2401.250
DUCHIFAT 1 23 Mar 23:51:54 23:53:19 11° 90° (E) 23:54:45 145.980
ISS 23 Mar 23:54:24 23:57:23 32° 337° (NNW) 00:00:24 437.550
Tancredo 1 24 Mar 00:09:00 00:11:43 25° 341° (NNW) 00:14:27 437.200
UKube-1 24 Mar 00:14:56 00:17:48 18° 64° (ENE) 00:20:39 .
AO-85 24 Mar 00:19:36 00:21:09 12° 323° (NW) 00:22:39 145.980
AIST 2D 24 Mar 00:28:30 00:32:00 70° 102° (ESE) 00:35:27 435.315
NANOSAT C BR1 24 Mar 00:34:08 00:38:06 38° 98° (E) 00:42:01 145.865
EO-79 24 Mar 00:36:35 00:40:41 44° 99° (E) 00:44:43 145.935-145.965
SPROUT 24 Mar 00:47:09 00:51:27 78° 258° (WSW) 00:55:47 437.525
50 SAT 24 Mar 00:49:58 00:53:25 90° 87° (E) 00:56:53 437.505
TIGRISAT 24 Mar 00:56:57 00:58:42 12° 300° (WNW) 01:00:27 435.000
DX 1 24 Mar 01:02:38 01:06:58 77° 74° (ENE) 01:11:20 434.975-435.025
POLYITAN 1 24 Mar 01:03:38 01:07:55 89° 284° (WNW) 01:12:08 437.675
QB50P2 24 Mar 01:08:07 01:12:22 74° 285° (WNW) 01:16:35 145.880/145.840
BEESAT 3 24 Mar 01:15:44 01:18:40 19° 317° (NW) 01:21:37 437.485
VELOX 1 24 Mar 01:15:49 01:19:47 33° 263° (W) 01:23:47 145.980
BEESAT 2 24 Mar 01:23:21 01:26:59 33° 311° (NW) 01:30:40 435.950
SO-50 24 Mar 01:24:44 01:29:02 46° 242° (WSW) 01:33:19 436.795
FO-29 24 Mar 01:24:58 01:29:24 21° 302° (WNW) 01:33:30 435.910
DUCHIFAT 1 24 Mar 01:25:13 01:29:25 62° 285° (WNW) 01:33:32 145.980
ISS 24 Mar 01:32:19 01:34:35 17° 357° (N) 01:36:52 437.550
RS-15 24 Mar 01:44:47 01:50:42 15° 266° (W) 01:56:31 29.354- 29.394
Tancredo 1 24 Mar 01:46:31 01:48:39 16° 1° (N) 01:50:48 437.200
UKube-1 24 Mar 01:49:20 01:53:27 46° 260° (W) 01:57:38 .
BUGSAT 1 24 Mar 01:53:55 01:58:08 89° 298° (WNW) 02:02:17 437.445
Gurwin Techsat 1B 24 Mar 01:55:52 01:59:14 17° 91° (E) 02:02:35 435.225
Oscar 19 24 Mar 02:05:12 02:09:55 35° 97° (E) 02:14:37 437.125/150
NANOSAT C BR1 24 Mar 02:10:29 02:13:33 20° 295° (WNW) 02:16:36 145.865
EO-79 24 Mar 02:13:17 02:16:05 17° 296° (WNW) 02:18:53 145.935-145.965
BEESAT 24 Mar 02:20:10 02:24:16 29° 67° (ENE) 02:28:24 436.000
O/OREOS (USA 219) 24 Mar 02:33:01 02:36:02 17° 52° (NE) 02:39:01 437.305
ITUPSAT 1 24 Mar 02:33:55 02:38:22 39° 69° (ENE) 02:42:48 437.325
MOZHAYETS 4 24 Mar 03:04:06 03:08:08 31° 68° (ENE) 03:12:10
ISS 24 Mar 03:09:05 03:11:53 24° 18° (NNE) 03:14:40 437.550
Tancredo 1 24 Mar 03:22:41 03:25:34 29° 22° (NNE) 03:28:25 437.200
Gurwin Techsat 1B 24 Mar 03:34:21 03:39:37 64° 288° (WNW) 03:44:52 435.225
Oscar 19 24 Mar 03:44:40 03:49:08 30° 294° (WNW) 03:53:35 437.125/150
ITAMSAT 1 24 Mar 03:45:39 03:50:09 29° 96° (E) 03:54:37 435.822/435.867
CUBESAT XI-V 24 Mar 03:49:36 03:52:24 16° 63° (ENE) 03:55:13 437.345
STARS 24 Mar 03:55:00 03:56:24 11° 60° (ENE) 03:57:48 437.465
BEESAT 24 Mar 03:57:44 04:01:57 31° 263° (W) 04:06:14 436.000
AO-7 24 Mar 04:07:45 04:15:26 40° 99° (E) 04:23:03 .
O/OREOS (USA 219) 24 Mar 04:11:18 04:15:51 60° 251° (WSW) 04:20:23 437.305
ITUPSAT 1 24 Mar 04:12:27 04:16:17 24° 266° (W) 04:20:08 437.325
MOZHAYETS 4 24 Mar 04:41:21 04:45:15 27° 265° (W) 04:49:11
KKS-1 24 Mar 04:43:10 04:47:37 77° 75° (ENE) 04:52:07 437.445
ISS 24 Mar 04:45:19 04:48:37 73° 216° (SW) 04:51:55 437.550
Tancredo 1 24 Mar 04:58:43 05:01:50 47° 219° (SW) 05:04:55 437.200
M-CUBED/EXP-1 PRIME 24 Mar 05:14:18 05:16:40 16° 58° (ENE) 05:19:09 437.505
CUBESAT XI-V 24 Mar 05:24:48 05:29:19 56° 260° (W) 05:33:51 437.345
ITAMSAT 1 24 Mar 05:24:55 05:29:39 36° 293° (WNW) 05:34:22 435.822/435.867
AO-85 24 Mar 05:27:01 05:29:11 14° 40° (NE) 05:31:22 145.980
STARS 24 Mar 05:27:39 05:32:04 81° 257° (WSW) 05:36:32 437.465
AO-7 24 Mar 06:00:27 06:08:18 49° 298° (WNW) 06:16:09 .
DOVE 4 24 Mar 06:05:02 06:08:48 19° 90° (E) 06:12:32 437.250
XW-2C 24 Mar 06:16:07 06:17:36 12° 91° (E) 06:19:03 145.795 - 145.815
KKS-1 24 Mar 06:24:01 06:24:43 10° 271° (W) 06:25:24 437.445
STRAND 1 24 Mar 06:44:47 06:49:07 28° 66° (ENE) 06:53:27 437.568
M-CUBED/EXP-1 PRIME 24 Mar 06:47:21 06:50:45 40° 257° (WSW) 06:54:27 437.505
CUTE-I 24 Mar 06:53:35 06:58:26 34° 97° (E) 07:03:14 437.470
YUBILEINY 24 Mar 06:59:45 07:05:32 20° 78° (ENE) 07:11:17 435.215
LilacSat-2 24 Mar 07:04:32 07:08:13 49° 100° (E) 07:11:51 437.200
AO-85 24 Mar 07:06:06 07:10:01 72° 238° (WSW) 07:14:03 145.980
XW-2F 24 Mar 07:08:21 07:12:00 50° 100° (E) 07:15:37 145.980 - 146.000
HO-68 24 Mar 07:15:10 07:19:03 15° 88° (E) 07:22:55 435.675
NO-84 24 Mar 07:23:33 07:24:55 13° 127° (SE) 07:26:16 435.350 FM
XW-2D 24 Mar 07:32:26 07:36:10 73° 284° (WNW) 07:39:54 145.860 - 145.880
XW-2B 24 Mar 07:38:18 07:42:02 64° 285° (WNW) 07:45:44 145.730 - 145.750
DOVE 4 24 Mar 07:41:36 07:46:48 57° 287° (WNW) 07:51:57 437.250
NUDT-PHONESAT 24 Mar 07:42:14 07:45:55 71° 283° (WNW) 07:49:33 437.300
KAITUO 1B 24 Mar 07:45:55 07:49:35 63° 285° (WNW) 07:53:13 145.475/437.950
XW-2C 24 Mar 07:48:27 07:52:04 46° 287° (WNW) 07:55:39 145.795 - 145.815
BEESAT 3 24 Mar 07:53:07 07:56:53 36° 50° (NE) 08:00:36 437.485
AO-7 24 Mar 07:56:17 07:59:06 12° 320° (NW) 08:01:54 .
BEESAT 2 24 Mar 08:02:43 08:05:55 22° 44° (NE) 08:09:06 435.950
STRAND 1 24 Mar 08:23:22 08:28:08 38° 263° (W) 08:32:55 437.568
AAUSAT CUBESAT 2 24 Mar 08:31:59 08:34:49 18° 92° (E) 08:37:39 437.432
CUTE-I 24 Mar 08:33:40 08:38:25 33° 294° (WNW) 08:43:07 437.470
XW-2A 24 Mar 08:38:12 08:41:37 85° 283° (WNW) 08:44:59 145.665 - 145.685
SEEDS 24 Mar 08:38:21 08:42:20 42° 98° (E) 08:46:19 437.485
CUTE 1.7 + AOD 2 24 Mar 08:39:45 08:43:58 70° 102° (ESE) 08:48:10 437.475
LilacSat-2 24 Mar 08:40:24 08:42:04 13° 296° (WNW) 08:43:45 437.200
XW-2F 24 Mar 08:44:12 08:45:43 12° 296° (WNW) 08:47:14 145.980 - 146.000
AO-73 24 Mar 08:45:28 08:46:22 11° 88° (E) 08:47:17 145.935
YUBILEINY 24 Mar 08:52:22 09:01:09 86° 278° (W) 09:09:56 435.215
UNISAT 6 24 Mar 08:53:18 08:54:48 11° 60° (ENE) 08:56:17 437.425
PRISM 24 Mar 08:53:36 08:56:28 19° 65° (ENE) 08:59:21 437.425
NO-84 24 Mar 08:59:21 09:02:07 47° 324° (NW) 09:04:55 435.350 FM
HO-68 24 Mar 09:00:31 09:07:44 86° 105° (ESE) 09:14:55 435.675
UWE-3 24 Mar 09:01:58 09:05:55 32° 96° (E) 09:09:43 435.000/436.395/437.385
CUBEBUG 2 24 Mar 09:29:32 09:34:00 75° 284° (WNW) 09:38:17 437.445
BEESAT 3 24 Mar 09:31:09 09:34:16 22° 247° (WSW) 09:37:21 437.485
BEESAT 2 24 Mar 09:40:01 09:43:52 43° 242° (WSW) 09:47:41 435.950
Oscar 11 24 Mar 09:46:24 09:50:34 45° 99° (E) 09:54:41 .
ZACube-1 24 Mar 09:48:47 09:53:02 62° 101° (E) 09:57:09 437.345
FO-29 24 Mar 09:49:45 09:56:45 38° 65° (ENE) 10:03:26 435.910
PCSat 24 Mar 09:57:11 10:01:34 26° 108° (ESE) 10:05:59 145.827
AAUSAT CUBESAT 2 24 Mar 10:06:35 10:10:26 38° 289° (WNW) 10:14:17 437.432
SEEDS 24 Mar 10:14:57 10:17:42 17° 295° (WNW) 10:20:28 437.485
DELFI C3 24 Mar 10:15:13 10:18:40 28° 96° (E) 10:22:06 145.870
TIGRISAT 24 Mar 10:16:46 10:21:26 70° 75° (ENE) 10:26:06 435.000
CUTE 1.7 + AOD 2 24 Mar 10:17:44 10:19:14 12° 298° (WNW) 10:20:42 437.475
AO-73 24 Mar 10:18:52 10:23:06 66° 285° (WNW) 10:27:12 145.935
UNISAT 6 24 Mar 10:26:04 10:30:47 88° 265° (W) 10:35:29 437.425
PRISM 24 Mar 10:27:43 10:31:29 37° 262° (W) 10:35:17 437.425
UWE-3 24 Mar 10:38:45 10:42:11 23° 294° (WNW) 10:45:31 435.000/436.395/437.385
NO-84 24 Mar 10:39:20 10:40:17 11° 345° (NNW) 10:41:17 435.350 FM
DUCHIFAT 1 24 Mar 10:45:22 10:46:19 11° 60° (ENE) 10:47:15 145.980
HO-68 24 Mar 10:49:38 10:54:35 21° 305° (NW) 10:59:33 435.675
YUBILEINY 24 Mar 10:53:34 10:59:21 19° 300° (WNW) 11:05:08 435.215
AIST 2D 24 Mar 11:03:44 11:06:46 27° 71° (ENE) 11:09:49 435.315
LO-87 24 Mar 11:05:47 11:07:02 11° 91° (E) 11:08:16 145.935 - 145.965
Oscar 11 24 Mar 11:23:30 11:26:20 17° 295° (WNW) 11:29:10 .
NANOSAT C BR1 24 Mar 11:26:44 11:30:30 31° 69° (ENE) 11:34:18 145.865
ZACube-1 24 Mar 11:26:51 11:28:45 13° 298° (WNW) 11:30:39 437.345
EO-79 24 Mar 11:29:27 11:33:21 36° 71° (ENE) 11:37:18 145.935-145.965
FO-29 24 Mar 11:33:57 11:41:32 50° 262° (W) 11:48:48 435.910
PCSat 24 Mar 11:39:26 11:44:40 48° 306° (NW) 11:49:56 145.827
ESTCUBE 1 24 Mar 11:41:28 11:44:37 18° 92° (E) 11:47:45 437.505/2401.250
RS-15 24 Mar 11:44:48 11:52:15 19° 96° (E) 11:59:48 29.354- 29.394
DELFI C3 24 Mar 11:50:10 11:53:20 23° 292° (WNW) 11:56:30 145.870
POLYITAN 1 24 Mar 11:56:20 12:00:37 73° 75° (ENE) 12:04:55 437.675
TIGRISAT 24 Mar 11:56:29 11:58:34 13° 271° (W) 12:00:38 435.000
QB50P2 24 Mar 12:00:49 12:05:07 88° 69° (ENE) 12:09:26 145.880/145.840
DUCHIFAT 1 24 Mar 12:17:05 12:21:20 80° 257° (WSW) 12:25:37 145.980
SPROUT 24 Mar 12:33:10 12:35:59 17° 92° (E) 12:38:45 437.525
LO-87 24 Mar 12:37:13 12:40:45 46° 286° (WNW) 12:44:15 145.935 - 145.965
AIST 2D 24 Mar 12:37:31 12:40:01 18° 266° (W) 12:42:31 435.315
BUGSAT 1 24 Mar 12:43:40 12:47:51 68° 75° (ENE) 12:52:06 437.445
DX 1 24 Mar 12:51:54 12:53:45 12° 90° (E) 12:55:37 434.975-435.025
NANOSAT C BR1 24 Mar 13:02:49 13:06:14 23° 266° (W) 13:09:41 145.865
VELOX 1 24 Mar 13:04:28 13:08:43 42° 99° (E) 13:12:56 145.980
EO-79 24 Mar 13:06:03 13:09:13 20° 267° (W) 13:12:25 145.935-145.965
Gurwin Techsat 1B 24 Mar 13:17:14 13:21:47 30° 66° (ENE) 13:26:21 435.225
ESTCUBE 1 24 Mar 13:17:20 13:21:38 44° 289° (WNW) 13:25:53 437.505/2401.250
AO-7 24 Mar 13:20:16 13:24:18 15° 43° (NE) 13:28:19 .
Oscar 19 24 Mar 13:22:38 13:27:37 55° 72° (ENE) 13:32:37 437.125/150
PCSat 24 Mar 13:28:00 13:29:27 11° 328° (NNW) 13:30:56 145.827
UKube-1 24 Mar 13:35:42 13:39:22 26° 96° (E) 13:42:59 .
POLYITAN 1 24 Mar 13:36:34 13:36:53 10° 271° (W) 13:37:11 437.675
50 SAT 24 Mar 13:46:20 13:49:51 88° 96° (E) 13:53:22 437.505
RS-15 24 Mar 13:50:37 14:02:32 77° 118° (ESE) 14:14:54 29.354- 29.394
NO-84 24 Mar 13:55:03 13:57:35 22° 28° (NNE) 14:00:17 435.350 FM
SPROUT 24 Mar 14:08:01 14:12:06 44° 288° (WNW) 14:16:09 437.525
BUGSAT 1 24 Mar 14:22:42 14:23:40 11° 271° (W) 14:24:40 437.445
DX 1 24 Mar 14:25:59 14:30:21 63° 287° (WNW) 14:34:40 434.975-435.025
VELOX 1 24 Mar 14:41:37 14:44:52 20° 295° (WNW) 14:48:07 145.980
Gurwin Techsat 1B 24 Mar 14:56:42 15:01:36 37° 263° (W) 15:06:32 435.225
Oscar 19 24 Mar 15:03:47 15:07:17 18° 268° (W) 15:10:47 437.125/150
ITAMSAT 1 24 Mar 15:04:04 15:09:05 48° 70° (ENE) 15:14:07 435.822/435.867
AO-7 24 Mar 15:07:15 15:15:21 58° 65° (ENE) 15:23:26 .
UKube-1 24 Mar 15:11:36 15:15:21 29° 292° (WNW) 15:19:06 .
NO-84 24 Mar 15:32:07 15:35:18 52° 224° (SW) 15:38:47 435.350 FM
SO-50 24 Mar 15:39:08 15:43:35 46° 118° (ESE) 15:47:59 436.795
BEESAT 24 Mar 15:56:16 16:00:59 61° 101° (ESE) 16:05:40 436.000
RS-15 24 Mar 16:04:59 16:16:16 41° 324° (NW) 16:27:48 29.354- 29.394
ITUPSAT 1 24 Mar 16:10:48 16:15:35 83° 99° (E) 16:20:22 437.325
MOZHAYETS 4 24 Mar 16:34:34 16:39:08 65° 102° (ESE) 16:43:38
KKS-1 24 Mar 16:34:55 16:37:13 14° 91° (E) 16:39:31 437.445
ITAMSAT 1 24 Mar 16:44:48 16:48:47 22° 267° (W) 16:52:47 435.822/435.867
O/OREOS (USA 219) 24 Mar 16:47:21 16:49:41 14° 98° (E) 16:52:03 437.305
AO-7 24 Mar 17:01:11 17:08:27 33° 263° (W) 17:15:47 .
DOVE 4 24 Mar 17:11:30 17:14:47 19° 63° (ENE) 17:18:12 437.250
STARS 24 Mar 17:17:15 17:20:12 17° 92° (E) 17:23:06 437.465
SO-50 24 Mar 17:20:22 17:24:13 25° 316° (NW) 17:28:04 436.795
CUBESAT XI-V 24 Mar 17:20:31 17:24:43 33° 96° (E) 17:28:55 437.345
BEESAT 24 Mar 17:35:20 17:38:16 16° 299° (WNW) 17:41:10 436.000
HO-68 24 Mar 17:46:26 17:49:59 15° 50° (NE) 17:53:33 435.675
LilacSat-2 24 Mar 17:47:12 17:50:28 27° 70° (ENE) 17:53:44 437.200
XW-2F 24 Mar 17:50:06 17:53:20 27° 70° (ENE) 17:56:33 145.980 - 146.000
ITUPSAT 1 24 Mar 17:50:48 17:52:44 12° 301° (WNW) 17:54:40 437.325
KKS-1 24 Mar 18:09:43 18:14:09 59° 287° (WNW) 18:18:32 437.445
MOZHAYETS 4 24 Mar 18:13:20 18:15:44 14° 298° (WNW) 18:18:08
XW-2D 24 Mar 18:13:58 18:17:42 56° 74° (ENE) 18:21:26 145.860 - 145.880
CUTE-I 24 Mar 18:15:54 18:21:10 60° 71° (ENE) 18:26:28 437.470
XW-2B 24 Mar 18:19:47 18:23:33 64° 76° (ENE) 18:27:21 145.730 - 145.750
NUDT-PHONESAT 24 Mar 18:21:55 18:25:35 54° 74° (ENE) 18:29:15 437.300
RS-15 24 Mar 18:23:43 18:33:26 25° 358° (N) 18:43:07 29.354- 29.394
O/OREOS (USA 219) 24 Mar 18:24:05 18:28:32 59° 295° (WNW) 18:33:04 437.305
M-CUBED/EXP-1 PRIME 24 Mar 18:25:57 18:28:12 13° 95° (E) 18:30:28 437.505
KAITUO 1B 24 Mar 18:26:13 18:29:55 62° 76° (ENE) 18:33:38 145.475/437.950
XW-2C 24 Mar 18:29:49 18:33:38 87° 85° (E) 18:37:28 145.795 - 145.815
PCSat 24 Mar 18:43:25 18:48:03 28° 47° (NE) 18:52:40 145.827
DOVE 4 24 Mar 18:47:32 18:52:00 51° 261° (W) 18:56:48 437.250
STARS 24 Mar 18:52:31 18:56:46 46° 289° (WNW) 19:00:59 437.465
CUBEBUG 2 24 Mar 18:54:23 18:56:08 12° 60° (ENE) 18:57:53 437.445
CUBESAT XI-V 24 Mar 18:58:06 19:01:57 26° 293° (WNW) 19:05:49 437.345
YUBILEINY 24 Mar 19:01:45 19:10:11 50° 75° (ENE) 19:18:33 435.215
XW-2A 24 Mar 19:10:11 19:13:18 33° 72° (ENE) 19:16:27 145.665 - 145.685
LilacSat-2 24 Mar 19:21:45 19:24:44 21° 266° (W) 19:27:44 437.200
AAUSAT CUBESAT 2 24 Mar 19:23:44 19:25:48 14° 64° (ENE) 19:27:53 437.432
XW-2F 24 Mar 19:24:31 19:27:27 21° 266° (W) 19:30:24 145.980 - 146.000
HO-68 24 Mar 19:29:21 19:36:26 69° 70° (ENE) 19:43:33 435.675
SEEDS 24 Mar 19:30:40 19:34:22 32° 70° (ENE) 19:38:05 437.485
CUTE 1.7 + AOD 2 24 Mar 19:32:46 19:36:51 52° 73° (ENE) 19:40:57 437.475
AO-73 24 Mar 19:41:37 19:43:07 11° 61° (ENE) 19:44:36 145.935
XW-2D 24 Mar 19:51:30 19:52:14 10° 270° (W) 19:52:56 145.860 - 145.880
CUTE-I 24 Mar 19:57:57 20:01:36 18° 269° (W) 20:05:16 437.470
M-CUBED/EXP-1 PRIME 24 Mar 19:58:24 20:03:00 71° 291° (WNW) 20:07:39 437.505
UWE-3 24 Mar 19:59:06 20:03:12 31° 69° (ENE) 20:07:17 435.000/436.395/437.385
NUDT-PHONESAT 24 Mar 19:59:06 19:59:49 10° 270° (W) 20:00:32 437.300
PCSat 24 Mar 20:26:27 20:31:42 50° 246° (WSW) 20:36:54 145.827
CUBEBUG 2 24 Mar 20:27:16 20:32:02 86° 260° (W) 20:36:48 437.445
STRAND 1 24 Mar 20:32:32 20:37:40 70° 103° (ESE) 20:42:44 437.568
RS-15 24 Mar 20:39:30 20:50:49 38° 33° (NNE) 21:01:45 29.354- 29.394
Oscar 11 24 Mar 20:41:41 20:45:40 38° 71° (ENE) 20:49:41 .
XW-2A 24 Mar 20:44:17 20:46:11 14° 268° (W) 20:48:06 145.665 - 145.685
ZACube-1 24 Mar 20:44:32 20:48:59 54° 73° (ENE) 20:53:23 437.345
AAUSAT CUBESAT 2 24 Mar 20:56:48 21:00:48 54° 260° (W) 21:04:52 437.432
YUBILEINY 24 Mar 20:59:00 21:06:41 37° 275° (W) 21:14:23 435.215
DELFI C3 24 Mar 21:02:00 21:04:43 18° 66° (ENE) 21:07:26 145.870
SEEDS 24 Mar 21:06:53 21:10:06 21° 266° (W) 21:13:20 437.485
CUTE 1.7 + AOD 2 24 Mar 21:10:50 21:13:00 14° 270° (W) 21:15:09 437.475
AO-73 24 Mar 21:14:09 21:18:42 82° 256° (WSW) 21:23:13 145.935
HO-68 24 Mar 21:19:16 21:24:42 23° 268° (W) 21:30:11 435.675
AO-85 24 Mar 21:21:19 21:25:09 28° 116° (ESE) 21:28:47 145.980
ISS 24 Mar 21:26:04 21:28:39 22° 135° (SE) 21:31:15 437.550
UWE-3 24 Mar 21:35:37 21:39:36 28° 265° (W) 21:43:35 435.000/436.395/437.385
Tancredo 1 24 Mar 21:35:38 21:38:26 29° 137° (SE) 21:41:15 437.200
